STARLINK-4749 (53818 NORAD) Tracking and Keplerian Element Data

This shows tracking and keplerian element data for the satellite.

Feedback or suggestion? Click here.




ElementValue
Catalog53818
NameSTARLINK-4749
Epoch Orbit1046
Epoch Day325.33334491
Epoch Year2022
RAAN310.9661
Inclination53.2171
Eccentricity0.0001658
Argument of Perigee52.6303
Mean Anonmoly192.9108
Mean Motion15.13068421
Decay Rate-0.01145868
L11 53818U 22114A 22325.33334491 -.01145868 00000+0 -69520-1 0 9996
L22 53818 53.2171 310.9661 0001658 52.6303 192.9108 15.13068421 10463



Live tracking and technical data element details for STARLINK-4749 (NORAD 53818). STARLINK-4749 can be tracked NOW for your location showing map with azimuth and elevation plus other details from your city location.







IsCatalogInMostPopularTable: catalog: 53818, numindb: -1

Insert: records affected: 1


GetName: 53818 STARLINK-4749

Hit Count: inserted at: Thu, 08 Dec 2022 09:22:39 GMT